DW4238 Weather Reports


time (UTC)temp
C
wind
direction
speed
KPH
gust
KPH
rain 1hr
cm
rain 24hr
cm
rain mn
cm
humidity
%
barometer
mb
20260831061043 26 184 3.2 6.4 0.00 0.00 0.00 83 1014.9
20260831060620 26 184 3.2 8.0 0.00 0.00 0.00 83 1014.9
20260831060057 26 169 4.8 9.7 0.00 0.00 0.00 83 1014.8
20260831055540 26 180 4.8 8.0 0.00 0.00 0.00 83 1014.8
20260831055049 27 181 4.8 8.0 0.00 0.00 0.00 82 1014.8
20260831054553 27 174 3.2 12.9 0.00 0.00 0.00 82 1014.8
20260831054103 27 172 6.4 12.9 0.00 0.00 0.00 82 1014.7
20260831053547 27 170 6.4 14.5 0.00 0.00 0.00 82 1014.7
20260831053048 27 166 6.4 14.5 0.00 0.00 0.00 81 1014.6
20260831052557 27 150 9.7 14.5 0.00 0.00 0.00 81 1014.6
20260831052059 27 145 9.7 16.1 0.00 0.00 0.00 81 1014.6
20260831051559 27 173 8.0 16.1 0.00 0.00 0.00 81 1014.6
20260831051042 27 150 11.3 16.1 0.00 0.00 0.00 80 1014.6
20260831050554 27 150 9.7 14.5 0.00 0.00 0.00 80 1014.5
20260831045540 27 179 8.0 12.9 0.00 0.00 0.00 79 1014.4
20260831045053 27 171 8.0 12.9 0.00 0.00 0.00 79 1014.4
20260831044658 28 180 8.0 12.9 0.00 0.00 0.00 79 1014.5
20260831044047 28 171 9.7 12.9 0.00 0.00 0.00 78 1014.4
20260831043109 28 179 6.4 14.5 0.00 0.00 0.00 78 1014.3
20260831042624 28 161 8.0 12.9 0.00 0.00 0.00 77 1014.4
20260831041625 28 170 8.0 12.9 0.00 0.00 0.00 77 1014.3
20260831041116 28 181 8.0 16.1 0.00 0.00 0.00 76 1014.3
20260831040613 28 190 11.3 14.5 0.00 0.00 0.00 76 1014.4
20260831040045 28 184 8.0 14.5 0.00 0.00 0.00 76 1014.3
20260831035151 28 178 11.3 24.1 0.00 0.00 0.00 75 1014.1
20260831034557 29 171 12.9 24.1 0.00 0.00 0.00 75 1014.1
20260831034101 29 176 11.3 19.3 0.00 0.00 0.00 74 1014.0
20260831033613 29 156 11.3 22.5 0.00 0.00 0.00 74 1013.9
20260831033042 29 161 12.9 22.5 0.00 0.00 0.00 74 1013.8
20260831032544 29 163 12.9 17.7 0.00 0.00 0.00 74 1013.7
20260831031606 30 164 11.3 17.7 0.00 0.00 0.00 73 1013.7
20260831031118 30 174 11.3 17.7 0.00 0.00 0.00 72 1013.6
20260831030628 30 153 11.3 22.5 0.00 0.00 0.00 72 1013.5
20260831030050 30 167 12.9 22.5 0.00 0.00 0.00 71 1013.6
20260831025602 30 190 9.7 17.7 0.00 0.00 0.00 71 1013.6
20260831024619 30 164 9.7 14.5 0.00 0.00 0.00 71 1013.5
20260831024131 30 185 8.0 14.5 0.00 0.00 0.00 70 1013.3
20260831023637 30 173 8.0 12.9 0.00 0.00 0.00 70 1013.1
20260831023104 30 178 6.4 14.5 0.00 0.00 0.00 69 1013.1
20260831022608 30 177 11.3 17.7 0.00 0.00 0.00 69 1013.0
20260831021610 30 162 12.9 16.1 0.00 0.00 0.00 68 1012.8
20260831021114 30 150 9.7 16.1 0.00 0.00 0.00 68 1012.8
20260831020626 31 166 11.3 16.1 0.00 0.00 0.00 68 1012.8
20260831015548 31 136 8.0 14.5 0.00 0.00 0.00 66 1012.7
20260831014610 31 157 6.4 14.5 0.00 0.00 0.00 65 1012.4
20260831014057 31 190 8.0 12.9 0.00 0.00 0.00 64 1012.4
20260831013603 31 184 9.7 12.9 0.00 0.00 0.00 63 1012.3
20260831013155 31 172 9.7 16.1 0.00 0.00 0.00 62 1012.3
20260831012624 32 182 9.7 16.1 0.00 0.00 0.00 61 1012.4
20260831012128 32 172 8.0 11.3 0.00 0.00 0.00 60 1012.4
20260831011553 32 188 8.0 16.1 0.00 0.00 0.00 59 1012.3
20260831011106 32 159 9.7 17.7 0.00 0.00 0.00 59 1012.3
20260831010609 32 183 9.7 17.7 0.00 0.00 0.00 55 1012.3
20260831010042 32 180 11.3 17.7 0.00 0.00 0.00 54 1012.2
20260831005651 33 146 8.0 14.5 0.00 0.00 0.00 53 1012.1
20260831005132 33 143 4.8 11.3 0.00 0.00 0.00 53 1012.1
20260831004542 33 142 6.4 11.3 0.00 0.00 0.00 52 1012.1
20260831004047 33 144 6.4 11.3 0.00 0.00 0.00 52 1012.0
20260831003116 33 144 4.8 12.9 0.00 0.00 0.00 51 1011.9
20260831002559 33 143 6.4 14.5 0.00 0.00 0.00 51 1012.0
20260831001614 34 152 6.4 14.5 0.00 0.00 0.00 51 1012.0
20260831001105 34 144 8.0 17.7 0.00 0.00 0.00 50 1012.1
20260831000106 35 143 12.9 20.9 0.00 0.00 0.00 50 1012.0
20260830235600 35 125 12.9 19.3 0.00 0.00 0.00 49 1012.1
20260830234602 35 136 12.9 19.3 0.00 0.00 0.00 48 1012.1
20260830234114 35 144 12.9 19.3 0.00 0.00 0.00 48 1012.1
20260830233135 35 135 14.5 19.3 0.00 0.00 0.00 49 1012.1
20260830232546 35 144 8.0 19.3 0.00 0.00 0.00 49 1012.2
20260830231546 35 144 16.1 20.9 0.00 0.00 0.00 49 1012.1
20260830231050 35 139 16.1 22.5 0.00 0.00 0.00 49 1012.1
20260830230123 35 146 9.7 24.1 0.00 0.00 0.00 48 1012.1
20260830225628 35 130 16.1 24.1 0.00 0.00 0.00 48 1012.2
20260830225140 35 142 16.1 20.9 0.00 0.00 0.00 48 1012.2
20260830224607 35 138 8.0 19.3 0.00 0.00 0.00 47 1012.2
20260830224051 36 156 9.7 19.3 0.00 0.00 0.00 46 1012.2
20260830223110 35 158 8.0 19.3 0.00 0.00 0.00 47 1012.2
20260830222621 36 106 6.4 20.9 0.00 0.00 0.00 47 1012.2
20260830221648 36 146 11.3 24.1 0.00 0.00 0.00 47 1012.2
20260830221139 36 136 12.9 24.1 0.00 0.00 0.00 47 1012.2
20260830220619 36 122 6.4 25.7 0.00 0.00 0.00 48 1012.3
20260830220050 36 115 6.4 25.7 0.00 0.00 0.00 47 1012.3
20260830215554 36 116 11.3 25.7 0.00 0.00 0.00 48 1012.4
20260830214623 36 144 4.8 12.9 0.00 0.00 0.00 47 1012.5
20260830214127 35 156 4.8 14.5 0.00 0.00 0.00 47 1012.5
20260830213639 35 180 9.7 16.1 0.00 0.00 0.00 47 1012.7
20260830213109 35 153 4.8 17.7 0.00 0.00 0.00 47 1012.7
20260830212553 35 123 11.3 20.9 0.00 0.00 0.00 47 1012.7
20260830211614 35 138 11.3 22.5 0.00 0.00 0.00 47 1012.8
20260830211127 35 123 8.0 19.3 0.00 0.00 0.00 47 1012.8
20260830210639 35 160 11.3 25.7 0.00 0.00 0.00 48 1012.8
20260830210100 35 125 12.9 24.1 0.00 0.00 0.00 48 1012.9
20260830205553 35 115 11.3 22.5 0.00 0.00 0.00 48 1012.9
20260830204611 36 180 12.9 22.5 0.00 0.00 0.00 48 1012.9
20260830204119 35 171 11.3 22.5 0.00 0.00 0.00 47 1013.1
20260830203630 35 180 8.0 25.7 0.00 0.00 0.00 47 1013.1
20260830203058 36 149 11.3 19.3 0.00 0.00 0.00 48 1013.3
20260830202603 35 146 8.0 16.1 0.00 0.00 0.00 50 1013.5
20260830201600 35 152 9.7 25.7 0.00 0.00 0.00 48 1013.6
20260830201113 35 240 4.8 22.5 0.00 0.00 0.00 48 1013.6
20260830200625 35 215 11.3 22.5 0.00 0.00 0.00 46 1013.8
20260830200045 35 165 14.5 22.5 0.00 0.00 0.00 46 1013.9
20260830195600 35 132 16.1 29.0 0.00 0.00 0.00 47 1014.0
20260830194622 35 199 9.7 16.1 0.00 0.00 0.00 51 1014.1
20260830194134 34 165 3.2 14.5 0.00 0.00 0.00 54 1014.2
20260830193630 35 192 3.2 19.3 0.00 0.00 0.00 54 1014.3
20260830193041 35 165 8.0 24.1 0.00 0.00 0.00 55 1014.4
20260830192553 35 121 12.9 24.1 0.00 0.00 0.00 54 1014.5
20260830192158 34 151 6.4 22.5 0.00 0.00 0.00 55 1014.4
20260830191604 34 215 4.8 19.3 0.00 0.00 0.00 55 1014.6
20260830191116 34 133 4.8 20.9 0.00 0.00 0.00 54 1014.7
20260830190133 34 244 9.7 27.4 0.00 0.00 0.00 53 1014.8
20260830185559 34 198 11.3 27.4 0.00 0.00 0.00 55 1014.9
20260830184600 33 190 9.7 19.3 0.00 0.00 0.00 57 1015.1
20260830184111 33 168 11.3 19.3 0.00 0.00 0.00 56 1015.2
20260830183110 33 146 8.0 16.1 0.00 0.00 0.00 57 1015.2
20260830182600 33 83 8.0 16.1 0.00 0.00 0.00 58 1015.3
20260830181621 33 144 9.7 17.7 0.00 0.00 0.00 60 1015.6
20260830181132 33 232 12.9 17.7 0.00 0.00 0.00 59 1015.6
20260830180541 33 184 6.4 19.3 0.00 0.00 0.00 60 1015.7
20260830180052 33 263 8.0 16.1 0.00 0.00 0.00 59 1015.8
20260830175556 32 235 4.8 12.9 0.00 0.00 0.00 62 1015.9
20260830174625 32 228 9.7 17.7 0.00 0.00 0.00 61 1016.1
20260830174130 32 195 4.8 17.7 0.00 0.00 0.00 61 1016.0
20260830173541 32 167 6.4 22.5 0.00 0.00 0.00 61 1016.1
20260830173124 32 200 12.9 22.5 0.00 0.00 0.00 60 1016.2
20260830172636 32 215 8.0 19.3 0.00 0.00 0.00 62 1016.2
20260830172140 32 224 12.9 19.3 0.00 0.00 0.00 61 1016.4
20260830171610 32 146 4.8 16.1 0.00 0.00 0.00 62 1016.4
20260830171101 32 169 4.8 16.1 0.00 0.00 0.00 63 1016.4
20260830170640 32 194 9.7 16.1 0.00 0.00 0.00 62 1016.6
20260830170111 32 182 9.7 20.9 0.00 0.00 0.00 65 1016.5
20260830165623 31 149 11.3 20.9 0.00 0.00 0.00 65 1016.6
20260830164618 31 259 0.0 16.1 0.00 0.00 0.00 71 1016.8
20260830164120 31 259 8.0 16.1 0.00 0.00 0.00 70 1016.9
20260830163631 31 217 8.0 20.9 0.00 0.00 0.00 71 1016.8
20260830163058 31 229 11.3 20.9 0.00 0.00 0.00 72 1016.9
20260830162603 31 194 4.8 17.7 0.00 0.00 0.00 71 1016.9
20260830161615 31 242 8.0 19.3 0.00 0.00 0.00 70 1016.9
20260830161115 31 174 11.3 19.3 0.00 0.00 0.00 70 1016.8
20260830160117 31 243 9.7 16.1 0.00 0.00 0.00 73 1016.7
20260830155626 30 229 8.0 16.1 0.00 0.00 0.00 73 1016.7
20260830155131 30 216 8.0 14.5 0.00 0.00 0.00 74 1016.7
20260830154555 30 217 9.7 14.5 0.00 0.00 0.00 76 1016.7
20260830154106 30 243 3.2 14.5 0.00 0.00 0.00 78 1016.7
20260830153047 30 209 8.0 12.9 0.00 0.00 0.00 78 1016.8
20260830152555 29 234 6.4 16.1 0.00 0.00 0.00 79 1016.7
20260830151624 29 199 11.3 16.1 0.00 0.00 0.00 80 1016.7
20260830151128 28 195 8.0 16.1 0.00 0.00 0.00 81 1016.7
20260830150141 28 209 11.3 19.3 0.00 0.00 0.00 83 1016.7
20260830145611 28 216 9.7 16.1 0.00 0.00 0.00 84 1016.8
20260830144613 28 241 8.0 16.1 0.00 0.00 0.00 86 1016.7
20260830144125 28 215 4.8 16.1 0.00 0.00 0.00 87 1016.7
20260830143105 27 199 9.7 14.5 0.00 0.00 0.00 89 1016.7
20260830142616 27 211 9.7 12.9 0.00 0.00 0.00 89 1016.7
20260830141616 27 190 6.4 12.9 0.00 0.00 0.00 90 1016.7
20260830141059 27 219 4.8 11.3 0.00 0.00 0.00 91 1016.6
20260830135614 26 171 6.4 9.7 0.00 0.00 0.00 93 1016.6
20260830134636 26 182 6.4 8.0 0.00 0.00 0.00 93 1016.6
20260830134127 26 164 6.4 9.7 0.00 0.00 0.00 94 1016.6
20260830133626 25 153 6.4 9.7 0.00 0.00 0.00 94 1016.5
20260830133053 25 172 4.8 9.7 0.00 0.00 0.00 94 1016.5
20260830132604 25 172 3.2 6.4 0.00 0.00 0.00 94 1016.5
20260830131626 25 151 0.0 0.0 0.00 0.00 0.00 94 1016.4
20260830131109 25 144 0.0 0.0 0.00 0.00 0.00 94 1016.4
20260830130139 25 140 0.0 0.0 0.00 0.00 0.00 94 1016.3
20260830125601 25 140 0.0 0.0 0.00 0.00 0.00 94 1016.2
20260830124630 24 141 0.0 0.0 0.00 0.00 0.00 94 1016.1
20260830124134 24 192 0.0 0.0 0.00 0.00 0.00 94 1016.1
20260830123646 24 192 0.0 0.0 0.00 0.00 0.00 94 1015.9
20260830123049 24 192 0.0 0.0 0.00 0.00 0.00 94 1015.9
20260830122655 24 193 0.0 0.0 0.00 0.00 0.00 94 1015.8
20260830122129 24 193 0.0 0.0 0.00 0.00 0.00 94 1015.8
20260830121548 24 193 0.0 0.0 0.00 0.00 0.00 94 1015.8
20260830121100 24 193 0.0 0.0 0.00 0.00 0.00 94 1015.7
20260830120122 24 193 0.0 0.0 0.00 0.00 0.00 94 1015.5
20260830115634 24 193 0.0 0.0 0.00 0.00 0.00 94 1015.5
20260830115137 24 194 0.0 0.0 0.00 0.00 0.00 94 1015.5
20260830114603 24 194 0.0 0.0 0.00 0.00 0.00 94 1015.5
20260830114113 24 194 0.0 0.0 0.00 0.00 0.00 94 1015.4
20260830113615 24 194 0.0 0.0 0.00 0.00 0.00 94 1015.4
20260830113047 24 194 0.0 0.0 0.00 0.00 0.00 94 1015.5
20260830112549 24 194 0.0 1.6 0.00 0.00 0.00 94 1015.4
20260830111619 24 194 0.0 0.0 0.00 0.00 0.00 94 1015.3
20260830111124 24 194 0.0 0.0 0.00 0.00 0.00 93 1015.3
20260830110636 25 195 0.0 0.0 0.00 0.00 0.00 93 1015.3
20260830110057 25 196 0.0 0.0 0.00 0.00 0.00 93 1015.2
20260830105609 25 196 0.0 0.0 0.00 0.00 0.00 93 1015.2
20260830104636 25 196 0.0 3.2 0.00 0.00 0.00 93 1015.1
20260830104047 25 196 0.0 3.2 0.00 0.00 0.00 93 1015.1
20260830103110 25 196 0.0 3.2 0.00 0.00 0.00 93 1015.1
20260830102622 25 196 0.0 0.0 0.00 0.00 0.00 93 1015.0
20260830102126 25 196 0.0 0.0 0.00 0.00 0.00 92 1015.0
20260830101554 25 196 0.0 0.0 0.00 0.00 0.00 92 1014.9
20260830101109 25 196 0.0 0.0 0.00 0.00 0.00 92 1014.9
20260830100610 25 196 0.0 0.0 0.00 0.00 0.00 92 1014.9
20260830100041 25 196 0.0 0.0 0.00 0.00 0.00 92 1014.9
20260830095545 25 196 0.0 0.0 0.00 0.00 0.00 92 1014.9
20260830094615 25 196 0.0 0.0 0.00 0.00 0.00 92 1014.9
20260830094120 25 196 0.0 0.0 0.00 0.00 0.00 92 1014.9
20260830093632 25 196 0.0 0.0 0.00 0.00 0.00 92 1015.0
20260830093051 25 196 0.0 3.2 0.00 0.00 0.00 92 1015.0
20260830092613 25 196 0.0 4.8 0.00 0.00 0.00 92 1014.9
20260830091625 25 196 1.6 4.8 0.00 0.00 0.00 92 1014.9
20260830091108 25 197 0.0 6.4 0.00 0.00 0.00 91 1014.9
20260830090131 25 197 3.2 8.0 0.00 0.00 0.00 91 1014.9
20260830085622 25 196 4.8 8.0 0.00 0.00 0.00 91 1014.9
20260830085133 25 196 3.2 8.0 0.00 0.00 0.00 91 1014.8
20260830084553 25 198 3.2 8.0 0.00 0.00 0.00 91 1014.8
20260830084105 25 199 1.6 6.4 0.00 0.00 0.00 91 1014.8
20260830083105 25 199 3.2 8.0 0.00 0.00 0.00 90 1014.9
20260830082620 25 192 1.6 6.4 0.00 0.00 0.00 90 1015.0
20260830082118 25 192 0.0 6.4 0.00 0.00 0.00 90 1015.0
20260830081551 25 191 3.2 6.4 0.00 0.00 0.00 90 1015.0
20260830081104 25 189 3.2 6.4 0.00 0.00 0.00 90 1015.0
20260830080125 26 189 3.2 8.0 0.00 0.00 0.00 90 1015.0
20260830075610 26 188 3.2 8.0 0.00 0.00 0.00 90 1015.1
20260830075119 26 188 4.8 8.0 0.00 0.00 0.00 89 1015.1
20260830074547 26 189 3.2 8.0 0.00 0.00 0.00 89 1015.1
20260830074049 26 182 4.8 8.0 0.00 0.00 0.00 89 1015.2
20260830073111 26 190 4.8 11.3 0.00 0.00 0.00 89 1015.2
20260830072622 26 179 8.0 11.3 0.00 0.00 0.00 89 1015.1
20260830072041 26 199 8.0 16.1 0.00 0.00 0.00 88 1015.1
20260830071045 26 192 8.0 16.1 0.00 0.00 0.00 88 1015.1
20260830070045 26 190 6.4 11.3 0.00 0.00 0.00 87 1015.1
20260830065554 26 185 6.4 16.1 0.00 0.00 0.00 87 1015.2
20260830065044 26 207 11.3 16.1 0.00 0.00 0.00 87 1015.3
20260830064604 26 196 8.0 16.1 0.00 0.00 0.00 87 1015.2
20260830064048 26 182 8.0 14.5 0.00 0.00 0.00 87 1015.2
20260830063541 27 180 11.3 16.1 0.00 0.00 0.00 86 1015.2
20260830063102 27 175 11.3 16.1 0.00 0.00 0.00 86 1015.1
20260830062551 27 186 11.3 16.1 0.00 0.00 0.00 86 1015.2
20260830062116 27 184 8.0 16.1 0.00 0.00 0.00 86 1015.2
20260830061615 27 190 11.3 16.1 0.00 0.00 0.00 86 1015.2